STARLINK-37850, 69426

Orbit data source: Space-Track

STARLINK-37850, 69426 is a payload satellite owned by SpaceX/Seattle (US) in SSO that was launched on Sun, 07 Jun 2026 UTC via an FALCON 9 launch vehicle from the Air Force Western Test Range (AFWTR). Payload-class satellites include a variety of spacecraft equipped with specific instruments for various scientific and technological missions. These include communications satellites like Starlink; space stations such as the ISS; scientific satellites like the Hubble; Earth observation satellites from companies like Planet Labs, Umbra, and HawkEye 360; GPS; miniature CubeSats for education and research; and military/defense satellites.

Not visible in the next 10 days
Identifier
69426, 2026-126G
Orbit
SSO
Country
Flag of USUS
Related business
Manufacturer
SpaceX/Seattle
Mission
Operational spacecraft
Bus & Motor
STARLINK V2MO, Unknown motor
Mass
575 kg wet, ~530 kg dry
Launch date (UTC)
2026-06-07 (2 weeks ago)
Launch vehicle
FALCON 9
Launch site
Air Force Western Test Range (AFWTR)
Object type
Payload
Rocket body
Debris
Shape & HBR
Unknown
Radar Cross Section
RCS unknown

Expand to show TLE details & history
Last TLE update: 17 hours ago

TLE from 17 hours ago
0 STARLINK-37850
1 69426U 26126G   26171.13790679  .00158062  00000-0  84225-3 0  9999
2 69426  97.2822  31.3125 0001524  71.1777 288.9656 15.79985280  3265
Epoch: 2026-06-20T03:18Z
TLE epoch observation values (Epoch: 2026-06-20T03:18:35.146Z)
Latitude
-0.00003°
Longitude
73.30922°
Altitude
333.325 km
Speed
7.709 km/s
True Right ascension
02h 05m 15s
True Declination
0° 00' 00"
Sunlit
Object was in daylight at epoch
Visualization orbit readout
Latitude
Unknown
Longitude
Unknown
Altitude
Unknown
Speed
Unknown
Apparent Right ascension
Unknown
Apparent Declination
Unknown
Sunlit
N/A
Visualization observer readout
Local Sidereal Time
07:15:06
Azimuth
Unknown
Elevation
Unknown
Doppler factor
Unknown
Orbital elements
Apogee altitude
328.385 km
Perigee altitude
326.341 km
Semi-major axis
6,705.5 km
Eccentricity
0.00015
Inclination
97.2822°
RAAN
31.3125°
Arg. of periapsis
71.1777°
True anomaly
288.94908°
Mean anomaly
288.9656°
Eccentric anomaly
288.95734°
Mean motion
3.95272 °/min
Orbital period
91.08 mins
BSTAR
0.00084225
Loading maneuver chart data...
Computing Atmospheric mass density...
Loading historical data...
Loading historical data...
Loading historical data...
Loading historical data...
Loading historical data...
Loading historical data...
Loading historical data...

Documentation

Showing up to 5 results
|